Date String (YYYY-MM-DD hh:mm:ss) UTC,Instrument flags,Ambient pressure (hPa),Sample flow (lpm),Bypass flow (lpm),Sample temperature (°C),Ambient temperature (°C),ASC tube jacket temperature (°C),LED temperature (°C),Box temperature (°C),Sample RH (%),Span deviation,Mass concentration (μg/m³),Mass concentration (μg/m³),Mass concentration (μg/m³)
DateTimeUTC,F1_M11,P_M11,Q1_M11,Q2_M11,T1_M11,T2_M11,T3_M11,T4_M11,T5_M11,U1_M11,ZSPAN_M11,X2_M11,X0_M11,X1_M11
2023-04-10 23:00:00,,0835.6,4.99,0.00,30.2,29.0,00.0,38.5,31.7,08.6,0000.0,0004.13,0016.38,0002.33
2023-04-10 23:01:00,,0835.6,5.00,0.00,30.2,29.0,00.0,38.5,31.7,08.3,0000.0,0004.12,0016.23,0002.32
2023-04-10 23:02:00,,0835.7,5.00,0.00,30.2,29.0,00.0,38.5,31.7,08.0,0000.0,0004.14,0016.98,0002.35
2023-04-10 23:03:00,,0835.6,5.00,0.00,30.2,29.0,00.0,38.5,31.7,08.1,0000.0,0004.13,0017.09,0002.32
2023-04-10 23:04:00,,0835.7,4.99,0.00,30.2,29.0,00.0,38.5,31.8,08.1,0000.0,0004.08,0016.25,0002.30
2023-04-10 23:05:00,,0835.8,4.99,0.00,30.2,29.1,00.0,38.5,31.7,07.9,0000.0,0004.07,0015.19,0002.28
2023-04-10 23:06:00,,0835.7,4.99,0.00,30.3,29.1,00.0,38.5,31.7,08.0,0000.0,0004.08,0015.15,0002.27
2023-04-10 23:07:00,,0835.7,5.00,0.00,30.3,29.1,00.0,38.6,31.8,08.2,0000.0,0004.07,0015.50,0002.24
2023-04-10 23:08:00,,0835.7,5.00,0.00,30.3,29.1,00.0,38.6,31.8,08.3,0000.0,0004.08,0015.02,0002.25
2023-04-10 23:09:00,,0835.7,5.01,0.00,30.3,29.1,00.0,38.6,31.8,08.3,0000.0,0004.06,0015.46,0002.27
2023-04-10 23:10:00,,0835.7,5.00,0.00,30.3,29.1,00.0,38.6,31.8,08.4,0000.0,0004.03,0015.35,0002.30
2023-04-10 23:11:00,,0835.7,5.01,0.00,30.3,29.1,00.0,38.6,31.8,08.2,0000.0,0004.05,0014.58,0002.32
2023-04-10 23:12:00,,0835.7,5.00,0.00,30.3,29.0,00.0,38.6,31.8,08.2,0000.0,0004.10,0014.76,0002.36
2023-04-10 23:13:00,,0835.7,4.99,0.00,30.3,29.0,00.0,38.6,31.8,08.3,0000.0,0004.11,0014.74,0002.37
2023-04-10 23:14:00,,0835.7,5.00,0.00,30.3,29.0,00.0,38.6,31.8,08.0,0000.0,0004.11,0014.42,0002.40
2023-04-10 23:15:00,,0835.7,5.00,0.00,30.3,29.0,00.0,38.6,31.8,08.1,0000.0,0004.04,0015.18,0002.40
2023-04-10 23:16:00,,0835.7,5.01,0.00,30.3,29.0,00.0,38.6,31.8,08.2,0000.0,0004.03,0015.36,0002.42
2023-04-10 23:17:00,,0835.7,5.00,0.00,30.3,29.0,00.0,38.6,31.8,08.1,0000.0,0004.01,0015.92,0002.45
2023-04-10 23:18:00,,0835.7,5.01,0.00,30.3,29.0,00.0,38.7,31.8,08.2,0000.0,0004.02,0016.13,0002.46
2023-04-10 23:19:00,,0835.7,4.99,0.00,30.3,29.0,00.0,38.7,31.8,08.3,0000.0,0004.02,0016.33,0002.46
2023-04-10 23:20:00,,0835.7,5.00,0.00,30.3,29.0,00.0,38.7,31.8,08.1,0000.0,0004.03,0016.59,0002.47
2023-04-10 23:21:00,,0835.7,4.99,0.00,30.4,29.0,00.0,38.7,31.8,08.1,0000.0,0004.03,0017.31,0002.48
2023-04-10 23:22:00,,0835.7,5.00,0.00,30.4,29.1,00.0,38.7,31.8,08.1,0000.0,0004.03,0017.86,0002.49
2023-04-10 23:23:00,,0835.7,5.00,0.00,30.4,29.1,00.0,38.7,31.8,08.1,0000.0,0003.99,0017.60,0002.49
2023-04-10 23:24:00,,0835.8,5.01,0.00,30.4,29.1,00.0,38.7,31.9,08.1,0000.0,0003.97,0016.45,0002.49
2023-04-10 23:25:00,,0835.9,5.00,0.00,30.4,29.1,00.0,38.7,31.9,08.1,0000.0,0003.98,0015.83,0002.49
2023-04-10 23:26:00,,0835.7,5.00,0.00,30.4,29.2,00.0,38.8,31.9,08.1,0000.0,0004.07,0015.38,0002.51
2023-04-10 23:27:00,,0835.7,5.00,0.00,30.4,29.2,00.0,38.8,31.9,08.0,0000.0,0004.17,0015.37,0002.52
2023-04-10 23:28:00,,0835.8,5.01,0.00,30.4,29.2,00.0,38.8,32.0,07.9,0000.0,0004.19,0014.20,0002.52
2023-04-10 23:29:00,,0835.6,5.00,0.00,30.5,29.2,00.0,38.8,32.0,08.1,0000.0,0004.19,0014.80,0002.53
2023-04-10 23:30:00,,0835.8,5.00,0.00,30.5,29.2,00.0,38.8,32.0,08.2,0000.0,0004.21,0015.44,0002.54
2023-04-10 23:31:00,,0835.6,5.00,0.00,30.5,29.3,00.0,38.8,32.0,08.1,0000.0,0004.23,0015.02,0002.53
2023-04-10 23:32:00,,0835.6,5.00,0.00,30.5,29.3,00.0,38.8,32.0,08.3,0000.0,0004.23,0014.91,0002.52
2023-04-10 23:33:00,,0835.9,5.00,0.00,30.5,29.3,00.0,38.8,32.0,08.2,0000.0,0004.23,0014.70,0002.52
2023-04-10 23:34:00,,0835.8,4.99,0.00,30.5,29.3,00.0,38.8,32.0,08.2,0000.0,0004.26,0015.74,0002.50
2023-04-10 23:35:00,,0835.8,5.00,0.00,30.5,29.3,00.0,38.8,32.0,08.1,0000.0,0004.24,0015.76,0002.48
2023-04-10 23:36:00,,0835.8,5.00,0.00,30.6,29.3,00.0,38.9,32.0,08.0,0000.0,0004.19,0015.60,0002.45
2023-04-10 23:37:00,,0835.6,5.00,0.00,30.6,29.3,00.0,38.9,32.1,07.9,0000.0,0004.15,0015.18,0002.43
2023-04-10 23:38:00,,0835.6,5.00,0.00,30.6,29.3,00.0,38.9,32.1,07.9,0000.0,0004.10,0016.05,0002.41
2023-04-10 23:39:00,,0835.8,5.00,0.00,30.6,29.3,00.0,38.9,32.1,08.0,0000.0,0004.07,0016.44,0002.39
2023-04-10 23:40:00,,0835.7,5.00,0.00,30.6,29.4,00.0,38.9,32.1,08.1,0000.0,0004.08,0017.21,0002.38
2023-04-10 23:41:00,,0835.6,5.00,0.00,30.6,29.4,00.0,38.9,32.1,08.0,0000.0,0004.10,0017.19,0002.37
2023-04-10 23:42:00,,0835.6,5.00,0.00,30.6,29.4,00.0,38.9,32.1,08.1,0000.0,0004.06,0017.11,0002.35
2023-04-10 23:43:00,,0835.7,5.01,0.00,30.6,29.4,00.0,39.0,32.1,08.3,0000.0,0004.05,0016.91,0002.34
2023-04-10 23:44:00,,0835.6,5.00,0.00,30.7,29.4,00.0,39.0,32.1,08.1,0000.0,0004.06,0016.82,0002.32
2023-04-10 23:45:00,,0835.8,5.00,0.00,30.7,29.4,00.0,39.0,32.1,08.3,0000.0,0004.02,0016.14,0002.31
2023-04-10 23:46:00,,0835.8,5.00,0.00,30.7,29.4,00.0,39.0,32.1,08.3,0000.0,0004.02,0016.43,0002.31
2023-04-10 23:47:00,,0835.7,5.00,0.00,30.7,29.4,00.0,39.0,32.2,07.9,0000.0,0004.08,0017.09,0002.30
2023-04-10 23:48:00,,0835.7,5.00,0.00,30.7,29.4,00.0,39.0,32.2,07.8,0000.0,0004.07,0017.39,0002.29
2023-04-10 23:49:00,,0835.7,4.99,0.00,30.7,29.4,00.0,39.0,32.2,07.8,0000.0,0004.04,0016.19,0002.27
2023-04-10 23:50:00,,0835.7,5.00,0.00,30.7,29.3,00.0,39.0,32.2,07.9,0000.0,0004.05,0015.74,0002.26
2023-04-10 23:51:00,,0835.7,5.00,0.00,30.7,29.3,00.0,39.0,32.1,08.1,0000.0,0004.05,0014.26,0002.25
2023-04-10 23:52:00,,0835.7,5.01,0.00,30.7,29.3,00.0,39.0,32.1,08.3,0000.0,0004.05,0013.69,0002.23
2023-04-10 23:53:00,,0835.7,5.00,0.00,30.7,29.3,00.0,39.0,32.1,08.3,0000.0,0004.07,0013.96,0002.22
2023-04-10 23:54:00,,0835.7,5.00,0.00,30.7,29.4,00.0,39.1,32.2,08.4,0000.0,0004.12,0013.72,0002.20
2023-04-10 23:55:00,,0835.8,5.01,0.00,30.7,29.4,00.0,39.1,32.2,08.5,0000.0,0004.09,0013.09,0002.18
2023-04-10 23:56:00,,0835.7,4.99,0.00,30.7,29.4,00.0,39.1,32.2,08.3,0000.0,0004.07,0012.83,0002.17
2023-04-10 23:57:00,,0835.7,4.99,0.00,30.7,29.3,00.0,39.1,32.2,08.2,0000.0,0004.09,0012.91,0002.16
2023-04-10 23:58:00,,0835.7,5.00,0.00,30.7,29.3,00.0,39.1,32.2,08.3,0000.0,0004.03,0013.07,0002.14
2023-04-10 23:59:00,,0835.8,5.00,0.00,30.7,29.3,00.0,39.1,32.2,08.5,0000.0,0004.11,0014.30,0002.12
